Weather History for Covington, KY

Change the Weather History Date:

Wednesday, December 26, 2012

  Actual Average Record
Temperature  
Mean Temperature 38 °F 32 °F  
Max Temperature 46 °F 39 °F 64 °F (1889)
Min Temperature 29 °F 24 °F -3 °F (1983)
Degree Days  
Heating Degree Days 27 33  
Month to date heating degree days 571 790  
Since 1 July heating degree days 1677 1750  
Cooling Degree Days 0 0  
Month to date cooling degree days 0 0  
Year to date cooling degree days 1439 1121  
Moisture  
Dew Point 29 °F    
Average Humidity 84    
Maximum Humidity 92    
Minimum Humidity 75    
Precipitation  
Precipitation 0.84 in 0.11 in 1.39 in (1895)
Month to date precipitation 5.50 2.83  
Year to date precipitation 38.53 41.98  
Snow  
Snow 2.90 in 0.20 in 3.30 in (1930)
Month to date snowfall 3.8 3.8  
Since 1 July snowfall 3.8 4.6  
Snow Depth 0.00 in    
Sea Level Pressure  
Sea Level Pressure 29.68 in    
Wind  
Wind Speed 18 mph (NNE)    
Max Wind Speed 33 mph    
Max Gust Speed 40 mph    
Visibility 4 miles    
Events Fog , Rain , Snow    
T = Trace of Precipitation, MM = Missing Value Source: NWS Daily Summary

Daily Weather History Graph

Daily Weather History Graph

Search for Another Location

Airport:

Trip Planner

Search our weather history database for the weather conditions in past years. The results will help you decide how hot, cold, wet, or windy it might be!

Date:

Astronomy

Dec. 26, 2012 Rise Set
Actual Time 7:56 AM EST 5:22 PM EST
Civil Twilight 7:26 AM EST 5:52 PM EST
Nautical Twilight 6:52 AM EST 6:26 PM EST
Astronomical Twilight 6:20 AM EST 6:58 PM EST
Moon 4:15 PM EST (12/26) 6:19 AM EST (12/26)
Length of Visible Light 10h 26m
Length of Day
9h 26m
Waxing Gibbous, 97% of the Moon is Illuminated
Dec 26
Waxing Gibbous
Dec 28
Full
Jan 4
Last Quarter
Jan 11
New
Jan 18
First Quarter

Hourly Weather History & Observations

Time (EST) Temp. Windchill Dew Point Humidity Pressure Visibility Wind Dir Wind Speed Gust Speed Precip Events Conditions
12:52 AM 33.8 °F 22.8 °F 26.6 °F 75% 29.96 in 10.0 mi ENE 18.4 mph - N/A   Overcast
1:52 AM 34.0 °F 22.1 °F 27.0 °F 75% 29.91 in 6.0 mi ENE 21.9 mph 28.8 mph 0.00 in Snow Light Snow
2:52 AM 34.0 °F 22.1 °F 27.0 °F 75% 29.86 in 10.0 mi ENE 21.9 mph 33.4 mph 0.00 in   Overcast
3:44 AM 33.8 °F 21.9 °F 28.4 °F 81% 29.81 in 5.0 mi ENE 21.9 mph 31.1 mph 0.00 in   Light Freezing Drizzle
3:52 AM 33.1 °F 20.9 °F 28.0 °F 82% 29.82 in 5.0 mi ENE 21.9 mph 29.9 mph 0.00 in   Light Freezing Drizzle
4:12 AM 33.8 °F 21.3 °F 28.4 °F 81% 29.77 in 5.0 mi ENE 24.2 mph 31.1 mph 0.00 in Rain Light Freezing Rain
4:52 AM 33.1 °F 21.2 °F 28.9 °F 85% 29.74 in 6.0 mi ENE 20.7 mph 29.9 mph 0.02 in Rain Light Freezing Rain
5:25 AM 33.8 °F 21.6 °F 28.4 °F 81% 29.70 in 3.0 mi ENE 23.0 mph 33.4 mph 0.01 in Rain Light Freezing Rain
5:52 AM 33.1 °F 21.2 °F 30.0 °F 89% 29.69 in 3.0 mi NE 20.7 mph 29.9 mph 0.03 in Rain Light Freezing Rain
6:13 AM 33.8 °F 20.3 °F 30.2 °F 87% 29.63 in 2.5 mi NE 28.8 mph 36.8 mph 0.08 in Rain Light Freezing Rain
6:33 AM 33.8 °F 20.5 °F 30.2 °F 87% 29.61 in 3.0 mi NE 27.6 mph 36.8 mph 0.13 in Rain Light Freezing Rain
6:37 AM 33.8 °F 20.8 °F 30.2 °F 87% 29.61 in 4.0 mi NE 26.5 mph 34.5 mph 0.13 in Rain Light Freezing Rain
6:46 AM 33.8 °F 19.9 °F 30.2 °F 87% 29.60 in 4.0 mi NE 31.1 mph 40.3 mph 0.15 in Rain , Snow Light Freezing Rain
6:52 AM 33.1 °F 19.3 °F 30.9 °F 92% 29.60 in 4.0 mi NE 28.8 mph 40.3 mph 0.19 in Rain , Snow Light Freezing Rain
7:12 AM 33.8 °F 20.1 °F 33.8 °F 100% 29.57 in 3.0 mi NE 29.9 mph 39.1 mph 0.05 in Rain , Snow Light Rain
7:52 AM 33.1 °F 21.5 °F 33.1 °F 100% 29.59 in 4.0 mi NE 19.6 mph 29.9 mph 0.08 in Rain , Snow Light Rain
8:52 AM 34.0 °F 22.4 °F 30.9 °F 89% 29.58 in 1.5 mi NE 20.7 mph 29.9 mph 0.07 in Rain , Snow Light Rain
8:56 AM 33.8 °F 23.2 °F 30.2 °F 87% 29.56 in 1.5 mi NE 17.3 mph 29.9 mph 0.01 in Snow Light Ice Pellets
9:01 AM 33.8 °F 22.8 °F 30.2 °F 87% 29.57 in 0.5 mi NE 18.4 mph 27.6 mph 0.03 in Snow Light Ice Pellets
9:07 AM 33.8 °F 23.2 °F 30.2 °F 87% 29.57 in 0.5 mi NE 17.3 mph 27.6 mph 0.05 in Snow Light Snow
9:52 AM 33.1 °F 23.0 °F 30.9 °F 92% 29.58 in 0.5 mi NE 15.0 mph 25.3 mph 0.18 in Snow Light Snow
10:17 AM 33.8 °F 23.2 °F 30.2 °F 87% 29.56 in 3.0 mi NE 17.3 mph - 0.03 in Snow Light Snow
10:52 AM 33.1 °F 21.9 °F 30.9 °F 92% 29.57 in 3.0 mi NNE 18.4 mph 23.0 mph 0.04 in Rain , Snow Light Rain
11:29 AM 33.8 °F 22.8 °F 32.0 °F 93% 29.54 in 2.5 mi NNE 18.4 mph - 0.01 in Rain , Snow Light Rain
11:52 AM 33.1 °F 22.6 °F 32.0 °F 96% 29.55 in 2.5 mi NNE 16.1 mph 24.2 mph 0.02 in Snow Light Snow
12:07 PM 33.8 °F 23.9 °F 32.0 °F 93% 29.53 in 1.0 mi NNE 15.0 mph 24.2 mph 0.00 in Snow Light Snow
12:24 PM 33.8 °F 23.9 °F 32.0 °F 93% 29.53 in 0.5 mi North 15.0 mph - 0.03 in Snow Light Snow
12:52 PM 32.0 °F 21.2 °F 30.9 °F 96% 29.54 in 0.5 mi North 16.1 mph - 0.05 in Snow Light Snow
1:52 PM 30.9 °F 19.1 °F 28.9 °F 92% 29.54 in 0.5 mi North 18.4 mph 24.2 mph 0.04 in Fog , Snow Snow
2:52 PM 30.0 °F 18.3 °F 28.0 °F 92% 29.56 in 0.2 mi North 17.3 mph - 0.08 in Fog , Snow Heavy Snow
3:18 PM 30.2 °F 19.3 °F 28.4 °F 93% 29.56 in 0.5 mi North 15.0 mph - N/A Fog , Snow Snow
3:41 PM 30.2 °F 18.1 °F 26.6 °F 86% 29.57 in 0.5 mi North 18.4 mph - 0.03 in Snow Light Snow
3:52 PM 30.0 °F 17.9 °F 27.0 °F 88% 29.60 in 1.8 mi North 18.4 mph - 0.03 in Snow Light Snow
4:52 PM 30.0 °F 18.7 °F 28.0 °F 92% 29.65 in 1.2 mi NNW 16.1 mph - 0.00 in Snow Light Snow
5:52 PM 30.0 °F 17.9 °F 28.0 °F 92% 29.68 in 2.0 mi NNW 18.4 mph 27.6 mph 0.01 in Snow Light Snow
6:22 PM 30.2 °F 18.9 °F 26.6 °F 86% 29.69 in 4.0 mi NNW 16.1 mph 25.3 mph 0.00 in Snow Light Snow
6:41 PM 30.2 °F 18.1 °F 28.4 °F 93% 29.72 in 2.5 mi NNW 18.4 mph - 0.00 in Snow Light Snow
6:52 PM 30.9 °F 21.2 °F 28.0 °F 89% 29.75 in 4.0 mi NW 12.7 mph - 0.00 in Snow Light Snow
7:23 PM 30.2 °F 17.4 °F 26.6 °F 86% 29.75 in 9.0 mi NNW 20.7 mph - 0.00 in Snow Light Snow
7:52 PM 30.0 °F 18.3 °F 26.1 °F 85% 29.79 in 9.0 mi NW 17.3 mph - 0.00 in Snow Light Snow
8:52 PM 30.0 °F 16.6 °F 24.1 °F 79% 29.83 in 10.0 mi NNW 23.0 mph 34.5 mph 0.00 in   Overcast
9:22 PM 28.4 °F 16.2 °F 24.8 °F 86% 29.83 in 10.0 mi NNW 17.3 mph - N/A   Overcast
9:52 PM 28.9 °F 18.6 °F 24.1 °F 82% 29.88 in 10.0 mi NW 12.7 mph - N/A   Overcast
10:52 PM 28.9 °F 19.2 °F 24.1 °F 82% 29.92 in 10.0 mi NW 11.5 mph - N/A   Overcast
11:52 PM 28.4 °F 18.5 °F 23.0 °F 80% 29.92 in 10.0 mi NW 11.5 mph - N/A   Overcast